Location: Mainz-Finthen
(49.9906°N, 8.1713°E)
Time: 02:55:45
(UTC+00:00)

BlueWalker 3 - Pass Details

Date: 04 December 2022
Orbit: 499 x 517 km, 53.2° (Epoch: 26 January)

Event Time Altitude Azimuth Distance (km) Brightness Sun altitude
Rises 18:31:10 0° 292° (WNW) 2,629 6.6 -28.6°
Reaches altitude 10° 18:33:23 10° 292° (WNW) 1,737 5.5 -28.9°
Enters shadow 18:35:14 27° 290° (WNW) 1,021 4.0 -29.2°
